Regional Weather Roundup
Issued by NWS

Home | Current Version | Previous Version | Graphics & Text | Print | Product List | Glossary On
Versions: 1 2 3 4 5 6 7 8 9 10 11 12 13 14 15 16 17 18 19 20 21 22 23 24 25 26 27 28 29 30 31 32 33 34 35 36 37 38 39 40 41 42 43 44 45 46 47 48 49 50
000
ASUS43 KOAX 251310
RWRNE

WEATHER ROUNDUP FOR NEBRASKA
NATIONAL WEATHER SERVICE OMAHA NE
800 AM CDT SUN SEP 25 2016

NOTES: SATELLITE DATA IS BEING USED TO AUGMENT CLOUD COVER ABOVE
       12000 FEET.
       "FAIR" INDICATES FEW OR NO CLOUDS BELOW 12,000 FEET WITH NO
       SIGNIFICANT WEATHER AND/OR OBSTRUCTIONS TO VISIBILITY.

  * THESE STATIONS DO NOT REPORT WEATHER SUCH AS RAIN...SNOW OR FOG.

NEZ001>004-019>022-054>056-251400-
NEBRASKA PANHANDLE

CITY           SKY/WX    TMP DP  RH WIND       PRES   REMARKS
SCOTTSBLUFF    PTCLDY    41  37  86 NW6       30.39R
ALLIANCE       CLEAR     43  40  89 NW14      30.33R
CHADRON        CLEAR     47  41  80 W16       30.33R
KIMBALL        CLEAR     39  37  89 W6        30.41R
SIDNEY         CLEAR     43  37  79 NW10      30.39R
$$

NEZ057>060-069>072-079>082-251400-
SOUTHWEST NEBRASKA

CITY           SKY/WX    TMP DP  RH WIND       PRES   REMARKS
NORTH PLATTE   CLEAR     50  42  74 NW10      30.29R
IMPERIAL       CLEAR     49  39  68 NW13      30.33R
LEXINGTON      CLEAR     50  43  75 NW10      30.24R
MCCOOK         CLEAR     49  42  77 W9        30.28R
OGALLALA       CLEAR     45  41  83 SW6       30.34R
$$

NEZ005>010-023>029-035>040-094-251400-
NORTH CENTRAL NEBRASKA

CITY           SKY/WX    TMP DP  RH WIND       PRES   REMARKS
VALENTINE      MOCLDY    53  42  66 W15       30.20R
AINSWORTH      PTCLDY    51  44  76 W10       30.20R
BROKEN BOW     CLEAR     51  42  71 NW16G23   30.21R
O`NEILL        MOCLDY    57  44  60 W17G24    30.13S
ORD            CLEAR     54  42  64 NW12      30.17R
THEDFORD       CLEAR     50  43  78 W10       30.25R
$$

NEZ041-046>049-061>064-073>077-083>087-251400-
SOUTH CENTRAL NEBRASKA

CITY           SKY/WX    TMP DP  RH WIND       PRES   REMARKS
GRAND ISLAND   CLEAR     50  43  77 W7        30.20R
AURORA         PTCLDY    51  47  84 NW7       30.18R
HASTINGS       CLEAR     51  43  74 NW10      30.21R
HEBRON         CLOUDY    53  48  83 NW3       30.17R
HOLDREGE       CLEAR     51  42  71 NW7       30.23R
KEARNEY *      CLEAR     52  39  62 NW8       30.21R
YORK           MOCLDY    50  46  87 NW9       30.16R
$$

NEZ011>018-030>034-042>045-251400-
NORTHEAST NEBRASKA

CITY           SKY/WX    TMP DP  RH WIND       PRES   REMARKS
NORFOLK        CLEAR     52  44  74 W12       30.11R
ALBION         CLEAR     54  44  69 NW9       30.15R
BLAIR          MOCLDY    56  51  81 W5        30.10R
FREMONT        CLOUDY    54  48  82 W7        30.12R
TEKAMAH        PTCLDY    55  48  77 W6        30.09R
WAYNE          CLEAR     53  47  80 W9        30.09S
$$

NEZ050>053-065>068-078-088>093-251400-
SOUTHEAST NEBRASKA

CITY           SKY/WX    TMP DP  RH WIND       PRES   REMARKS
LINCOLN        CLOUDY    57  47  69 NW6       30.15R
OMAHA EPPLEY   CLOUDY    59  49  69 NW13      30.10R
BEATRICE       CLOUDY    56  50  80 NW7       30.14R
FALLS CITY     CLOUDY    62  59  90 NW9       30.09R
NEBRASKA CITY  CLOUDY    58  47  66 NW10      30.11R
PLATTSMOUTH    CLOUDY    58  48  69 NW9       30.10R
$$

NEZ044-045-051>053-067-251400-
OMAHA AREA

CITY           SKY/WX    TMP DP  RH WIND       PRES   REMARKS
OMAHA EPPLEY   CLOUDY    59  49  69 NW13      30.10R
BLAIR          MOCLDY    56  51  81 W5        30.10R
FREMONT        CLOUDY    54  48  82 W7        30.12R
MILLARD        CLOUDY    59  49  70 NW9       30.11R
OFFUTT AFB     CLOUDY    58  51  76 NW9       30.10R
PLATTSMOUTH    CLOUDY    58  48  69 NW9       30.10R
WAHOO          FAIR      55  48  76 NW6       30.12R
$$




USA.gov is the U.S. government's official web portal to all federal, state and local government web resources and services.